Location: Doux
(49.5045°N, 4.4321°E)
Time: 02:44:11
(UTC+00:00)

Cosmos 540 Rocket - Pass Details

Date: 23 May 2024
Orbit: 737 x 751 km, 74.1° (Epoch: 16 June)

Event Time Altitude Azimuth Distance (km) Brightness Sun altitude
Rises 01:07:43 0° 331° (NNW) 3,212 7.3 -17.1°
Reaches altitude 10° 01:10:12 10° 324° (NW) 2,284 6.4 -17.0°
Maximum altitude 01:14:59 39° 256° (WSW) 1,120 4.1 -16.7°
Enters shadow 01:16:56 28° 212° (SSW) 1,383 4.2 -16.6°
